Pompano Beach, FL

1:11 AM EST on January 17, 2017 (GMT -0500)
Pompano Beach

Weather History for KPMP - April, 2013

Change the Weather History Date:

Tuesday, April 2, 2013

  Actual Average Record
Temperature  
Mean Temperature 73 °F -  
Max Temperature 81 °F 82 °F 91 °F (2016)
Min Temperature 66 °F 65 °F 52 °F (1987)
Cooling Degree Days 8    
Growing Degree Days 23 (Base 50)    
Moisture  
Dew Point 65 °F    
Average Humidity 82    
Maximum Humidity 100    
Minimum Humidity 54    
Precipitation  
Precipitation 0.00 in - - ()
Sea Level Pressure  
Sea Level Pressure 30.05 in    
Wind  
Wind Speed 7 mph (NNW)    
Max Wind Speed 13 mph    
Max Gust Speed -    
Visibility 8 miles    
Events Fog    
Averages and records for this station are not official NWS values.
T = Trace of Precipitation, MM = Missing Value Source: NWS Daily Summary

Daily Weather History Graph

Daily Weather History Graph

Search for Another Location

Airport or City:

Trip Planner

Search our weather history database for the weather conditions in past years. The results will help you decide how hot, cold, wet, or windy it might be!

Date:

Astronomy

Apr. 02, 2013 Rise Set
Actual Time 7:10 AM EDT 7:37 PM EDT
Civil Twilight 6:46 AM EDT 8:01 PM EDT
Nautical Twilight 6:19 AM EDT 8:28 PM EDT
Astronomical Twilight 5:52 AM EDT 8:56 PM EDT
Moon 1:18 AM EDT (4/2) 12:21 PM EDT (4/2)
Length of Visible Light 13h 14m
Length of Day
12h 27m
Waning Gibbous, 56% of the Moon is Illuminated
Apr 2
Waning Gibbous
Apr 3
Last Quarter
Apr 10
New
Apr 18
First Quarter
Apr 25
Full

Hourly Weather History & Observations

Time (EDT) Temp. Heat Index Dew Point Humidity Pressure Visibility Wind Dir Wind Speed Gust Speed Precip Events Conditions
12:53 AM 71.1 °F - 64.0 °F 78% 30.04 in 10.0 mi WNW 6.9 mph - N/A   Clear
1:53 AM 69.1 °F - 64.9 °F 87% 30.04 in 10.0 mi WNW 8.1 mph - N/A   Clear
2:53 AM 68.0 °F - 66.0 °F 93% 30.02 in 10.0 mi WNW 8.1 mph - N/A   Clear
3:53 AM 66.9 °F - 66.0 °F 97% 30.01 in 10.0 mi WNW 4.6 mph - N/A   Clear
4:53 AM 66.9 °F - 66.9 °F 100% 30.01 in 10.0 mi West 4.6 mph - N/A   Clear
5:53 AM 66.0 °F - 66.0 °F 100% 30.02 in 8.0 mi West 5.8 mph - N/A   Clear
6:14 AM 66.2 °F - 66.2 °F 100% 30.02 in 6.0 mi West 5.8 mph - N/A   Scattered Clouds
6:25 AM 66.2 °F - 66.2 °F 100% 30.02 in 3.0 mi WNW 8.1 mph - N/A   Mostly Cloudy
6:27 AM 66.2 °F - 66.2 °F 100% 30.02 in 1.8 mi NW 8.1 mph - N/A   Mostly Cloudy
6:33 AM 66.2 °F - 66.2 °F 100% 30.02 in 0.5 mi NW 6.9 mph - N/A Fog Fog
6:45 AM 66.2 °F - 66.2 °F 100% 30.03 in 1.0 mi NW 5.8 mph - N/A   Mist
6:53 AM 66.0 °F - 66.0 °F 100% 30.03 in 1.8 mi NW 8.1 mph - N/A   Overcast
6:59 AM 66.2 °F - 66.2 °F 100% 30.03 in 3.0 mi NW 6.9 mph - N/A   Overcast
7:53 AM 66.0 °F - 66.0 °F 100% 30.06 in 4.0 mi NW 6.9 mph - N/A   Overcast
8:39 AM 66.2 °F - 66.2 °F 100% 30.08 in 7.0 mi NNW 8.1 mph - N/A   Partly Cloudy
8:53 AM 69.1 °F - 66.9 °F 93% 30.08 in 9.0 mi NW 5.8 mph - N/A   Clear
9:53 AM 73.0 °F - 64.9 °F 76% 30.09 in 10.0 mi NW 9.2 mph - N/A   Clear
10:53 AM 77.0 °F - 64.0 °F 64% 30.09 in 10.0 mi NNW 3.5 mph - N/A   Clear
11:53 AM 80.1 °F 81.2 °F 62.1 °F 54% 30.10 in 10.0 mi Calm Calm - N/A   Clear
12:53 PM 79.0 °F - 64.0 °F 60% 30.09 in 10.0 mi East 10.4 mph - N/A   Clear
1:53 PM 78.1 °F - 64.9 °F 64% 30.07 in 10.0 mi East 10.4 mph - N/A   Partly Cloudy
2:53 PM 80.1 °F 81.5 °F 63.0 °F 56% 30.05 in 10.0 mi East 10.4 mph - N/A   Partly Cloudy
3:53 PM 80.1 °F 81.7 °F 64.0 °F 58% 30.03 in 10.0 mi ENE 11.5 mph - N/A   Clear
4:53 PM 79.0 °F - 64.0 °F 60% 30.03 in 10.0 mi ENE 10.4 mph - N/A   Clear
5:53 PM 79.0 °F - 63.0 °F 58% 30.03 in 10.0 mi ENE 12.7 mph - N/A   Clear
6:53 PM 77.0 °F - 64.0 °F 64% 30.04 in 10.0 mi ENE 10.4 mph - N/A   Clear
7:53 PM 75.0 °F - 66.0 °F 73% 30.04 in 10.0 mi ENE 8.1 mph - N/A   Clear
8:53 PM 75.0 °F - 66.0 °F 73% 30.06 in 10.0 mi ENE 9.2 mph - N/A   Clear
9:53 PM 75.0 °F - 66.0 °F 73% 30.08 in 10.0 mi ENE 8.1 mph - N/A   Clear
10:53 PM 73.9 °F - 68.0 °F 82% 30.09 in 10.0 mi East 9.2 mph - N/A   Partly Cloudy
11:53 PM 73.9 °F - 68.0 °F 82% 30.08 in 10.0 mi East 5.8 mph - N/A   Clear